This is the latest recevied weather packets stored in our database for station/object XE2OR-10. If no packets are shown the sender has not sent any weather packets the latest 10 day(s).
| Time | Temp. | Humidity | Pressure | Rain* | Wind** | Luminosity | Snow |
|---|---|---|---|---|---|---|---|
| 1777993429 | 25.56° C | 83% | 1012.4 hPa | 0 mm | - | 582 W/m² | - |
| 1777993128 | 25.56° C | 83% | 1012.6 hPa | 0 mm | - | 529 W/m² | - |
| 1777992832 | 25° C | 84% | 1012.6 hPa | 0 mm | - | 407 W/m² | - |
| 1777992528 | 25° C | 84% | 1012.5 hPa | 0 mm | - | 488 W/m² | - |
| 1777992233 | 25° C | 84% | 1012.5 hPa | 0 mm | - | 460 W/m² | - |
| 1777991929 | 24.44° C | 85% | 1012.5 hPa | 0 mm | - | 460 W/m² | - |
| 1777991629 | 24.44° C | 85% | 1012.7 hPa | 0 mm | - | 351 W/m² | - |
| 1777991329 | 24.44° C | 86% | 1012.5 hPa | 0 mm | - | 185 W/m² | - |
| 1777991033 | 23.89° C | 86% | 1012.4 hPa | 0 mm | - | 278 W/m² | - |
| 1777990729 | 23.89° C | 87% | 1012.5 hPa | 0 mm | - | 303 W/m² | - |
| 1777990433 | 23.33° C | 88% | 1012.5 hPa | 0 mm | - | 175 W/m² | - |
| 1777989829 | 23.89° C | 87% | 1012.7 hPa | 0 mm | - | 203 W/m² | - |
| 1777989529 | 23.33° C | 88% | 1012.5 hPa | 0 mm | - | 271 W/m² | - |
| 1777989232 | 22.78° C | 90% | 1012.5 hPa | 0 mm | - | 212 W/m² | - |
| 1777988929 | 23.33° C | 89% | 1012.5 hPa | 0 mm | - | 109 W/m² | - |
| 1777988632 | 22.78° C | 91% | 1012.5 hPa | 0 mm | - | 131 W/m² | - |
| 1777988329 | 22.22° C | 91% | 1012.6 hPa | 0 mm | - | 134 W/m² | - |
| 1777988029 | 22.22° C | 92% | 1012.6 hPa | 0 mm | - | 134 W/m² | - |
| 1777987728 | 22.22° C | 92% | 1012.5 hPa | 0 mm | - | 103 W/m² | - |
| 1777987432 | 22.22° C | 92% | 1012.5 hPa | 0 mm | - | 102 W/m² | - |
| 1777987128 | 22.22° C | 93% | 1012.4 hPa | 0 mm | - | 98 W/m² | - |
| 1777986833 | 21.67° C | 94% | 1012.3 hPa | 0 mm | - | 90 W/m² | - |
| 1777986529 | 21.11° C | 95% | 1012.4 hPa | 0 mm | - | 70 W/m² | - |
| 1777986228 | 21.11° C | 95% | 1012.2 hPa | 0 mm | - | 54 W/m² | - |
| 1777985929 | 21.11° C | 95% | 1012.1 hPa | 0 mm | - | 46 W/m² | - |
* Rain latest hour (hover to see other rain measurements)
** Current wind speed in m/s (hover to see current wind gust speed)